This is the latest recevied weather packets stored in our database for station/object WB4E-13. If no packets are shown the sender has not sent any weather packets the latest 10 day(s).
| Time | Temp. | Humidity | Pressure | Rain* | Wind** | Luminosity | Snow |
|---|---|---|---|---|---|---|---|
| 1777921952 | 23.89° C | 46% | 1011.1 hPa | 0 mm | - | - | - |
| 1777921603 | 23.89° C | 46% | 1011.1 hPa | 0 mm | - | - | - |
| 1777921003 | 23.89° C | 49% | 1011.3 hPa | 0 mm | - | - | - |
| 1777920403 | 24.44° C | 46% | 1011.4 hPa | 0 mm | - | - | - |
| 1777919803 | 23.89° C | 48% | 1011.5 hPa | 0 mm | - | - | - |
| 1777919207 | 23.89° C | 47% | 1011.8 hPa | 0 mm | - | - | - |
| 1777918606 | 23.33° C | 50% | 1011.9 hPa | 0 mm | - | - | - |
| 1777918007 | 23.33° C | 48% | 1012 hPa | 0 mm | - | - | - |
| 1777917406 | 23.89° C | 46% | 1012.1 hPa | 0 mm | - | - | - |
| 1777916909 | 23.33° C | 48% | 1012.3 hPa | 0 mm | - | - | - |
| 1777916806 | 23.33° C | 48% | 1012.3 hPa | 0 mm | - | - | - |
| 1777916206 | 23.33° C | 46% | 1012.3 hPa | 0 mm | - | - | - |
| 1777915606 | 23.33° C | 49% | 1012.4 hPa | 0 mm | - | - | - |
| 1777915005 | 22.78° C | 47% | 1012.5 hPa | 0 mm | - | - | - |
| 1777914405 | 22.78° C | 45% | 1012.7 hPa | 0 mm | - | - | - |
| 1777913805 | 23.33° C | 49% | 1012.8 hPa | 0 mm | - | - | - |
| 1777913205 | 22.22° C | 47% | 1012.9 hPa | 0 mm | - | - | - |
| 1777912605 | 22.78° C | 46% | 1013.2 hPa | 0 mm | - | - | - |
| 1777912005 | 22.22° C | 49% | 1013.3 hPa | 0 mm | - | - | - |
| 1777911404 | 22.22° C | 47% | 1013.5 hPa | 0 mm | - | - | - |
| 1777910804 | 21.67° C | 48% | 1013.7 hPa | 0 mm | - | - | - |
| 1777910204 | 21.67° C | 48% | 1013.9 hPa | 0 mm | - | - | - |
| 1777909603 | 21.11° C | 50% | 1014 hPa | 0 mm | - | - | - |
| 1777909003 | 20.56° C | 49% | 1014.2 hPa | 0 mm | - | - | - |
| 1777908403 | 20° C | 48% | 1014.3 hPa | 0 mm | - | - | - |
* Rain latest hour (hover to see other rain measurements)
** Current wind speed in m/s (hover to see current wind gust speed)